Dryden, TX

10:03 PM CDT on April 26, 2017 (GMT -0500)
Dryden

Weather History for K6R6 - March, 2013

Change the Weather History Date:

Tuesday, March 12, 2013

  Actual Average (KFST) Record (KFST)
Temperature  
Mean Temperature 62 °F -  
Max Temperature 87 °F 68 °F 88 °F (2011)
Min Temperature 37 °F 44 °F 32 °F (2009)
Degree Days  
Heating Degree Days 4    
Growing Degree Days 12 (Base 50)    
Moisture  
Dew Point 15 °F    
Average Humidity 19    
Maximum Humidity 36    
Minimum Humidity 6    
Precipitation  
Precipitation 0.00 in - - ()
Sea Level Pressure  
Sea Level Pressure 30.04 in    
Wind  
Wind Speed 7 mph (NW)    
Max Wind Speed 16 mph    
Max Gust Speed 23 mph    
Averages and records for this station are not official NWS values.
T = Trace of Precipitation, MM = Missing Value Source: NWS Daily Summary

Daily Weather History Graph

Daily Weather History Graph

Search for Another Location

Airport or City:

Trip Planner

Search our weather history database for the weather conditions in past years. The results will help you decide how hot, cold, wet, or windy it might be!

Date:

Astronomy

Mar. 12, 2013 Rise Set
Actual Time 8:01 AM CDT 7:55 PM CDT
Civil Twilight 7:38 AM CDT 8:19 PM CDT
Nautical Twilight 7:10 AM CDT 8:47 PM CDT
Astronomical Twilight 6:42 AM CDT 9:14 PM CDT
Moon 8:16 AM CDT (3/12) 9:03 PM CDT (3/12)
Length of Visible Light 12h 41m
Length of Day
11h 53m
New Moon, 1% of the Moon is Illuminated
Mar 12
New Moon
Mar 19
First Quarter
Mar 27
Full
Apr 2
Last Quarter
Apr 10
New

Hourly Weather History & Observations

Time (CDT) Temp. Windchill Dew Point Humidity Pressure Visibility Wind Dir Wind Speed Gust Speed Precip Events Conditions
12:53 AM 50.0 °F - 10.9 °F 21% 29.98 in - SSW 6.9 mph - N/A   Unknown
1:53 AM 46.9 °F - 10.9 °F 23% 29.98 in - SW 5.8 mph - N/A   Unknown
2:53 AM 44.1 °F 40.8 °F 12.0 °F 27% 29.97 in - West 5.8 mph - N/A   Unknown
3:53 AM 39.9 °F 34.5 °F 12.0 °F 32% 29.95 in - West 8.1 mph - N/A   Unknown
4:53 AM 44.1 °F 39.5 °F 10.9 °F 26% 29.95 in - West 8.1 mph - N/A   Unknown
5:53 AM 39.0 °F - 12.0 °F 33% 29.97 in - Calm Calm - N/A   Unknown
6:53 AM 42.1 °F 40.2 °F 12.0 °F 29% 29.98 in - West 3.5 mph - N/A   Unknown
7:53 AM 37.0 °F 34.5 °F 12.0 °F 36% 30.01 in - West 3.5 mph - N/A   Unknown
8:53 AM 46.9 °F - 12.9 °F 25% 30.03 in - West 3.5 mph - N/A   Unknown
9:53 AM 57.9 °F - 10.9 °F 16% 30.05 in - SW 6.9 mph - N/A   Unknown
10:53 AM - - - N/A% 30.12 in - North - - N/A   Unknown
11:53 AM 73.9 °F - 10.0 °F 9% 30.06 in - SW 11.5 mph - N/A   Unknown
12:53 PM 80.1 °F - 10.0 °F 7% 30.05 in - WSW 6.9 mph - N/A   Unknown
1:53 PM 82.9 °F - 10.0 °F 6% 30.03 in - Variable 5.8 mph - N/A   Unknown
2:53 PM 84.9 °F - 10.9 °F 6% 30.01 in - NNE 8.1 mph - N/A   Unknown
3:53 PM 84.0 °F - 10.9 °F 6% 30.01 in - Calm Calm - N/A   Unknown
4:53 PM 86.0 °F - 14.0 °F 7% 30.00 in - NNE 12.7 mph 19.6 mph N/A   Unknown
5:53 PM 82.0 °F - 19.9 °F 10% 30.03 in - North 13.8 mph 23.0 mph N/A   Unknown
6:53 PM 80.1 °F - 21.0 °F 11% 30.04 in - North 16.1 mph - N/A   Unknown
7:53 PM 73.9 °F - 23.0 °F 15% 30.08 in - North 12.7 mph - N/A   Unknown
8:53 PM 69.1 °F - 23.0 °F 18% 30.10 in - North 10.4 mph - N/A   Unknown
9:53 PM 66.9 °F - 23.0 °F 19% 30.13 in - North 12.7 mph - N/A   Unknown
10:53 PM 62.1 °F - 21.9 °F 21% 30.24 in - NNE 9.2 mph - N/A   Unknown
11:53 PM 59.0 °F - 23.0 °F 25% 30.19 in - North 10.4 mph - N/A   Unknown